Location: Igloolik
(69.3800°N, 81.8000°W)
Time: 18:34:33
(UTC-06:00)

Amateur Radio Satellites - All Passes

Search period start: 02 March 2015 18:04
Search period end: 03 March 2015 18:04
Location: Igloolik, 69.3800°N, 81.8000°W

Satellite Date Start Highest point End Downlink Frequencies (MHz)
Time Altitude Azimuth
COMPASS 1 02 Mar 18:06:43 18:10:48 55° 57° (ENE) 18:14:55 437.405
YUBILEINY 02 Mar 18:07:07 18:15:48 58° 312° (NW) 18:24:33 435.215
PRISM 02 Mar 18:08:08 18:12:12 43° 101° (E) 18:16:17 437.425
M-CUBED/EXP-1 PRIME 02 Mar 18:12:17 18:16:07 69° 313° (NW) 18:20:17 437.505
AUBIESAT-1 02 Mar 18:14:19 18:18:11 70° 311° (NW) 18:22:22 437.475
DX 1 02 Mar 18:19:56 18:24:01 38° 45° (NE) 18:28:08 434.975-435.025
AISAT 02 Mar 18:23:05 18:27:01 30° 37° (NE) 18:30:58 437.250
BRITE-PL 02 Mar 18:27:00 18:32:31 82° 249° (WSW) 18:37:40 437.365/2234.400
CUBEBUG 1 02 Mar 18:27:29 18:31:04 24° 30° (NNE) 18:34:41 437.445
BEESAT 3 02 Mar 18:29:53 18:33:18 25° 143° (SE) 18:36:46 437.485
GONETS M04 02 Mar 18:30:22 18:36:12 21° 55° (NE) 18:42:11
AO-7 02 Mar 18:30:56 18:33:21 11° 311° (NW) 18:35:29 29.400- 29.500
GOMX 1 02 Mar 18:32:29 18:37:42 90° 243° (WSW) 18:42:35 467.674
VELOX 1 02 Mar 18:32:33 18:36:33 32° 39° (NE) 18:40:32 145.980
SEEDS 02 Mar 18:33:51 18:38:04 82° 65° (ENE) 18:42:18 437.485
MOZHAYETS 4 02 Mar 18:36:18 18:40:41 43° 311° (NW) 18:45:05
CANX-2 02 Mar 18:36:57 18:41:12 85° 244° (WSW) 18:45:28 2200.000
FUNcube-1 02 Mar 18:40:23 18:44:25 42° 50° (NE) 18:48:24 145.935
SWISSCUBE 02 Mar 18:40:39 18:44:09 20° 360° (N) 18:47:40 437.505
ZACube-1 02 Mar 18:41:35 18:45:38 42° 51° (NE) 18:49:38 437.345
50 SAT 02 Mar 18:43:56 18:47:23 29° 42° (NE) 18:50:50 437.505
HUMSAT D 02 Mar 18:45:44 18:49:31 34° 46° (NE) 18:53:18 437.325/437.525
ESTCUBE 1 02 Mar 18:47:56 18:51:51 29° 35° (NE) 18:55:48 437.505/2401.250
BEESAT 02 Mar 18:49:15 18:52:45 20° 1° (N) 18:56:14 436.000
UKube-1 02 Mar 18:49:24 18:53:37 49° 51° (NE) 18:57:52 .
AIST 2 02 Mar 18:52:36 18:55:55 22° 138° (SE) 18:59:16 435.215
BEESAT 2 02 Mar 18:55:01 18:58:38 29° 148° (SSE) 19:02:17 435.950
CUTE 1.7 + AOD 2 02 Mar 18:55:39 18:59:53 71° 251° (WSW) 19:04:08 437.475
CUBESAT XI-V 02 Mar 18:57:33 19:02:20 82° 111° (ESE) 19:07:07 437.345
UWE-3 02 Mar 19:00:22 19:04:37 56° 57° (ENE) 19:08:47 435.000/436.395/437.385
SPROUT 02 Mar 19:00:31 19:03:43 21° 24° (NNE) 19:06:57 437.525
STRAND 1 02 Mar 19:01:09 19:06:21 63° 108° (ESE) 19:11:29 437.568
KKS-1 02 Mar 19:02:24 19:05:33 19° 347° (NNW) 19:08:41 437.445
TISAT 1 02 Mar 19:04:42 19:07:53 21° 24° (NNE) 19:11:05 437.305
DOVE 4 02 Mar 19:07:57 19:12:55 73° 250° (WSW) 19:17:36 437.250
STARS 02 Mar 19:09:01 19:12:10 19° 345° (NNW) 19:15:17 437.465
DELFI C3 02 Mar 19:12:26 19:16:29 71° 62° (ENE) 19:20:34 145.870
ITUPSAT 1 02 Mar 19:16:14 19:19:47 21° 7° (N) 19:23:22 437.325
CINEMA 3 02 Mar 19:16:35 19:21:13 86° 247° (WSW) 19:25:39 145.822/145.860
Oscar 11 02 Mar 19:31:35 19:35:55 82° 248° (WSW) 19:40:17 145.826/435.025
Cubesat XI-IV 02 Mar 19:32:50 19:34:41 11° 296° (WNW) 19:36:21 437.490
AIST 1 02 Mar 19:35:27 19:37:36 13° 288° (WNW) 19:39:38
O/OREOS (USA 219) 02 Mar 19:35:31 19:36:53 11° 262° (W) 19:38:07 437.305
CUBEBUG 2 02 Mar 19:37:40 19:42:05 88° 243° (WSW) 19:46:24 437.445
AAUSAT CUBESAT 2 02 Mar 19:39:58 19:44:02 52° 257° (WSW) 19:48:08 437.432
COMPASS 1 02 Mar 19:42:36 19:46:39 47° 259° (W) 19:50:44 437.405
CUTE-I 02 Mar 19:42:51 19:43:54 10° 298° (WNW) 19:44:47 437.470
PRISM 02 Mar 19:43:43 19:47:55 61° 303° (WNW) 19:52:06 437.425
HO-68 02 Mar 19:45:01 19:51:54 46° 262° (W) 19:58:48 435.675
M-CUBED/EXP-1 PRIME 02 Mar 19:47:22 19:50:45 31° 333° (NNW) 19:54:23 437.505
AUBIESAT-1 02 Mar 19:49:21 19:52:46 32° 332° (NNW) 19:56:25 437.475
DX 1 02 Mar 19:55:39 20:00:05 81° 247° (WSW) 20:04:32 434.975-435.025
AISAT 02 Mar 19:58:42 20:03:12 70° 59° (ENE) 20:07:42 437.250
PCSat 02 Mar 20:01:23 20:04:43 17° 115° (ESE) 20:08:10 145.827
CUBEBUG 1 02 Mar 20:02:28 20:06:47 50° 52° (NE) 20:11:08 437.445
YUBILEINY 02 Mar 20:06:26 20:14:35 39° 342° (NNW) 20:22:45 435.215
BEESAT 3 02 Mar 20:06:49 20:10:45 42° 166° (SSE) 20:14:43 437.485
BRITE-PL 02 Mar 20:06:50 20:11:42 31° 271° (W) 20:16:15 437.365/2234.400
VELOX 1 02 Mar 20:08:13 20:12:44 76° 63° (ENE) 20:17:15 145.980
SEEDS 02 Mar 20:10:35 20:14:21 31° 267° (W) 20:18:07 437.485
GOMX 1 02 Mar 20:11:42 20:16:22 33° 269° (W) 20:20:47 467.674
MOZHAYETS 4 02 Mar 20:13:31 20:17:09 23° 334° (NNW) 20:20:45
CANX-2 02 Mar 20:14:07 20:17:44 26° 271° (W) 20:21:21 2200.000
FUNcube-1 02 Mar 20:16:25 20:20:42 67° 252° (WSW) 20:24:55 145.935
SWISSCUBE 02 Mar 20:16:58 20:20:51 25° 24° (NNE) 20:24:46 437.505
ZACube-1 02 Mar 20:17:40 20:21:58 66° 252° (WSW) 20:26:11 437.345
50 SAT 02 Mar 20:18:04 20:22:03 79° 65° (ENE) 20:26:03 437.505
HUMSAT D 02 Mar 20:20:54 20:25:05 85° 248° (WSW) 20:29:15 437.325/437.525
UNISAT 6 02 Mar 20:22:27 20:24:07 12° 73° (ENE) 20:25:53 437.425
GONETS M04 02 Mar 20:22:57 20:30:56 44° 82° (E) 20:39:00
ESTCUBE 1 02 Mar 20:23:42 20:28:14 65° 58° (ENE) 20:32:47 437.505/2401.250
UKube-1 02 Mar 20:25:29 20:29:48 58° 253° (WSW) 20:34:10 .
BEESAT 02 Mar 20:25:33 20:29:26 25° 25° (NNE) 20:33:22 436.000
AIST 2 02 Mar 20:29:44 20:33:46 39° 160° (SSE) 20:37:49 435.215
BEESAT 2 02 Mar 20:32:14 20:36:14 44° 171° (S) 20:40:15 435.950
CUTE 1.7 + AOD 2 02 Mar 20:33:10 20:36:33 22° 274° (W) 20:39:53 437.475
SPROUT 02 Mar 20:34:59 20:39:01 39° 47° (NE) 20:43:05 437.525
CUBESAT XI-V 02 Mar 20:35:09 20:39:35 40° 315° (NW) 20:44:00 437.345
UWE-3 02 Mar 20:37:07 20:41:20 47° 259° (W) 20:45:28 435.000/436.395/437.385
KKS-1 02 Mar 20:37:53 20:40:59 19° 11° (NNE) 20:44:07 437.445
TISAT 1 02 Mar 20:38:55 20:42:55 39° 47° (NE) 20:46:55 437.305
STRAND 1 02 Mar 20:40:32 20:45:35 54° 311° (NW) 20:50:37 437.568
QB50P1 02 Mar 20:42:20 20:43:41 11° 72° (ENE) 20:45:08 145.935-145.965
STARS 02 Mar 20:44:26 20:47:26 18° 9° (N) 20:50:26 437.465
QB50P2 02 Mar 20:45:59 20:47:37 12° 73° (ENE) 20:49:22 145.880/145.840
TIGRISAT 02 Mar 20:47:02 20:49:39 16° 79° (ENE) 20:52:22 435.000
DOVE 4 02 Mar 20:47:19 20:51:25 25° 273° (W) 20:55:19 437.250
DELFI C3 02 Mar 20:48:17 20:52:01 34° 264° (W) 20:55:47 145.870
ITUPSAT 1 02 Mar 20:52:29 20:56:37 29° 31° (NNE) 21:00:47 437.325
BUGSAT 1 02 Mar 20:52:52 20:53:59 11° 71° (ENE) 20:55:13 437.445
CINEMA 3 02 Mar 20:55:00 20:59:00 28° 270° (W) 21:02:52 145.822/145.860
RS-15 02 Mar 20:58:04 21:03:39 16° 90° (E) 21:09:43 29.354- 29.394
ANTELSAT 02 Mar 21:00:28 21:03:31 19° 82° (E) 21:06:38 437.575/2403.000
DUCHIFAT 1 02 Mar 21:00:43 21:02:58 14° 76° (ENE) 21:05:18 145.980
Oscar 11 02 Mar 21:09:04 21:12:44 26° 271° (W) 21:16:22 145.826/435.025
CUBEBUG 2 02 Mar 21:15:32 21:19:22 28° 270° (W) 21:23:05 437.445
AAUSAT CUBESAT 2 02 Mar 21:17:56 21:20:39 16° 280° (W) 21:23:19 437.432
PRISM 02 Mar 21:19:21 21:22:55 26° 325° (NW) 21:26:28 437.425
POLYITAN 1 02 Mar 21:20:40 21:23:37 18° 82° (E) 21:26:36 437.675
COMPASS 1 02 Mar 21:20:54 21:23:25 15° 282° (WNW) 21:25:52 437.405
POPSAT HIP 1 02 Mar 21:21:10 21:24:07 18° 82° (E) 21:27:06 437.405
M-CUBED/EXP-1 PRIME 02 Mar 21:22:03 21:25:01 23° 355° (N) 21:28:10 437.505
AUBIESAT-1 02 Mar 21:23:58 21:26:58 23° 355° (N) 21:30:08 437.475
DX 1 02 Mar 21:33:13 21:36:59 26° 270° (W) 21:40:44 434.975-435.025
DANDE 02 Mar 21:33:17 21:34:28 11° 78° (ENE) 21:35:43 436.750
AISAT 02 Mar 21:35:52 21:40:08 40° 262° (W) 21:44:24 437.250
HO-68 02 Mar 21:36:28 21:41:38 20° 288° (WNW) 21:46:41 435.675
CUBEBUG 1 02 Mar 21:38:46 21:43:12 58° 255° (WSW) 21:47:38 437.445
PCSat 02 Mar 21:42:00 21:46:57 38° 138° (SE) 21:51:58 145.827
NANOSAT C BR1 02 Mar 21:44:12 21:47:38 23° 87° (E) 21:51:06 145.865
BEESAT 3 02 Mar 21:44:26 21:48:25 44° 189° (S) 21:52:24 437.485
VELOX 1 02 Mar 21:45:32 21:49:43 36° 264° (W) 21:53:54 145.980
BRITE-PL 02 Mar 21:49:59 21:51:54 12° 295° (WNW) 21:53:38 437.365/2234.400
MOZHAYETS 4 02 Mar 21:50:06 21:53:11 18° 358° (N) 21:56:16
SWISSCUBE 02 Mar 21:53:23 21:57:57 45° 47° (NE) 22:02:34 437.505
50 SAT 02 Mar 21:53:55 21:57:28 30° 266° (W) 22:01:01 437.505
GOMX 1 02 Mar 21:54:03 21:56:03 12° 292° (WNW) 21:57:52 467.674
FUNcube-1 02 Mar 21:54:29 21:57:49 21° 275° (W) 22:01:04 145.935
ZACube-1 02 Mar 21:55:50 21:59:07 21° 275° (W) 22:02:20 437.345
HUMSAT D 02 Mar 21:57:54 22:01:27 26° 270° (W) 22:04:57 437.325/437.525
UNISAT 6 02 Mar 21:58:13 22:02:13 37° 96° (E) 22:06:14 437.425
CUSAT 1 02 Mar 22:00:53 22:03:29 15° 87° (E) 22:05:51 437.405
ESTCUBE 1 02 Mar 22:00:59 22:05:22 44° 261° (W) 22:09:46 437.505/2401.250
BEESAT 02 Mar 22:01:58 22:06:34 47° 48° (NE) 22:11:11 436.000
UKube-1 02 Mar 22:03:40 22:06:52 19° 277° (W) 22:10:01 .
YUBILEINY 02 Mar 22:05:54 22:13:59 37° 13° (NNE) 22:22:06 435.215
AIST 2 02 Mar 22:07:46 22:11:56 47° 184° (S) 22:16:05 435.215
BEESAT 2 02 Mar 22:10:00 22:13:59 42° 194° (SSW) 22:17:58 435.950
SPROUT 02 Mar 22:10:35 22:14:57 77° 249° (WSW) 22:19:19 437.525
CUBESAT XI-V 02 Mar 22:12:31 22:16:10 22° 338° (NNW) 22:19:49 437.345
KKS-1 02 Mar 22:12:47 22:16:37 28° 34° (NE) 22:20:27 437.445
TISAT 1 02 Mar 22:14:16 22:18:35 76° 249° (WSW) 22:22:53 437.305
UWE-3 02 Mar 22:16:18 22:18:56 15° 282° (WNW) 22:21:29 435.000/436.395/437.385
QB50P1 02 Mar 22:16:58 22:20:54 34° 95° (E) 22:24:49 145.935-145.965
GONETS M04 02 Mar 22:18:28 22:27:11 89° 109° (ESE) 22:35:59
STARS 02 Mar 22:19:11 22:22:51 26° 32° (NNE) 22:26:32 437.465
STRAND 1 02 Mar 22:19:41 22:24:06 29° 334° (NNW) 22:28:30 437.568
QB50P2 02 Mar 22:20:51 22:24:49 36° 97° (E) 22:28:47 145.880/145.840
TIGRISAT 02 Mar 22:23:18 22:27:28 49° 102° (ESE) 22:31:40 435.000
BUGSAT 1 02 Mar 22:26:57 22:30:50 33° 95° (E) 22:34:40 437.445
DELFI C3 02 Mar 22:27:17 22:28:30 11° 288° (WNW) 22:29:37 145.870
ITUPSAT 1 02 Mar 22:29:12 22:33:56 59° 54° (NE) 22:38:43 437.325
DUCHIFAT 1 02 Mar 22:35:52 22:39:58 43° 100° (E) 22:44:01 145.980
ANTELSAT 02 Mar 22:36:58 22:41:14 59° 105° (ESE) 22:45:30 437.575/2403.000
PRISM 02 Mar 22:54:36 22:57:24 17° 349° (NNW) 23:00:12 437.425
M-CUBED/EXP-1 PRIME 02 Mar 22:56:08 22:59:12 26° 18° (NNE) 23:02:28 437.505
POLYITAN 1 02 Mar 22:56:15 23:00:29 56° 105° (ESE) 23:04:40 437.675
POPSAT HIP 1 02 Mar 22:56:43 23:00:56 56° 105° (ESE) 23:05:08 437.405
AUBIESAT-1 02 Mar 22:58:01 23:01:04 26° 18° (NNE) 23:04:21 437.475
Oscar 19 02 Mar 23:02:22 23:04:50 14° 70° (ENE) 23:07:25 437.125/150
RS-15 02 Mar 23:03:04 23:12:29 36° 120° (ESE) 23:22:15 29.354- 29.394
DANDE 02 Mar 23:12:11 23:16:59 34° 99° (E) 23:20:42 436.750
AISAT 02 Mar 23:15:40 23:18:01 14° 285° (WNW) 23:20:16 437.250
CUBEBUG 1 02 Mar 23:17:11 23:20:30 20° 278° (W) 23:23:44 437.445
NANOSAT C BR1 02 Mar 23:19:55 23:24:12 75° 110° (ESE) 23:28:27 145.865
BEESAT 3 02 Mar 23:22:18 23:25:56 29° 212° (SSW) 23:29:33 437.485
PCSat 02 Mar 23:24:29 23:29:52 63° 162° (SSE) 23:35:16 145.827
VELOX 1 02 Mar 23:25:41 23:27:39 12° 288° (WNW) 23:29:30 145.980
MOZHAYETS 4 02 Mar 23:25:43 23:29:11 22° 22° (NNE) 23:32:41
SWISSCUBE 02 Mar 23:30:55 23:35:44 73° 250° (WSW) 23:40:36 437.505
UNISAT 6 02 Mar 23:35:05 23:39:22 71° 299° (WNW) 23:43:39 437.425
BEESAT 02 Mar 23:39:33 23:44:21 69° 250° (WSW) 23:49:12 436.000
ESTCUBE 1 02 Mar 23:40:44 23:43:27 15° 284° (WNW) 23:46:05 437.505/2401.250
CUSAT 1 02 Mar 23:41:07 23:45:51 49° 106° (ESE) 23:49:27 437.405
AIST 2 02 Mar 23:46:07 23:50:02 34° 206° (SSW) 23:53:56 435.215
BEESAT 2 02 Mar 23:48:02 23:51:32 26° 216° (SW) 23:55:00 435.950
SPROUT 02 Mar 23:48:06 23:51:43 25° 272° (W) 23:55:19 437.525
KKS-1 02 Mar 23:48:19 23:52:46 64° 57° (ENE) 23:57:13 437.445
CUBESAT XI-V 02 Mar 23:49:08 23:52:23 19° 1° (N) 23:55:38 437.345
TISAT 1 02 Mar 23:51:31 23:55:04 24° 272° (W) 23:58:34 437.305
QB50P1 02 Mar 23:52:53 23:57:10 75° 299° (WNW) 00:01:25 145.935-145.965
STARS 02 Mar 23:54:24 23:58:45 56° 55° (NE) 00:03:06 437.465
QB50P2 02 Mar 23:56:48 00:01:04 71° 300° (WNW) 00:05:20 145.880/145.840
STRAND 1 02 Mar 23:58:11 00:02:11 23° 358° (N) 00:06:10 437.568
TIGRISAT 03 Mar 00:00:12 00:04:23 54° 305° (NW) 00:08:34 435.000
BUGSAT 1 03 Mar 00:02:27 00:06:43 77° 298° (WNW) 00:10:54 437.445
YUBILEINY 03 Mar 00:04:18 00:12:56 53° 43° (NE) 00:21:36 435.215
ITUPSAT 1 03 Mar 00:07:18 00:12:01 52° 257° (WSW) 00:16:46 437.325
DUCHIFAT 1 03 Mar 00:11:48 00:16:02 61° 303° (WNW) 00:20:13 145.980
Gurwin Techsat 1B 03 Mar 00:13:10 00:16:14 15° 72° (ENE) 00:19:25 435.225
ANTELSAT 03 Mar 00:13:56 00:18:04 47° 308° (NW) 00:22:12 437.575/2403.000
GONETS M04 03 Mar 00:16:30 00:24:59 52° 318° (NW) 00:33:29
AO-7 03 Mar 00:25:48 00:28:20 12° 50° (NE) 00:31:09 29.400- 29.500
JAS-2 03 Mar 00:26:17 00:26:45 10° 47° (NE) 00:27:27 435.910
PRISM 03 Mar 00:28:55 00:31:43 18° 12° (NNE) 00:34:32 437.425
M-CUBED/EXP-1 PRIME 03 Mar 00:30:14 00:33:39 51° 42° (NE) 00:37:22 437.505
AUBIESAT-1 03 Mar 00:32:01 00:35:28 50° 41° (NE) 00:39:10 437.475
POLYITAN 1 03 Mar 00:32:19 00:36:28 49° 307° (NW) 00:40:33 437.675
POPSAT HIP 1 03 Mar 00:32:44 00:36:52 49° 307° (NW) 00:40:59 437.405
ITAMSAT 1 03 Mar 00:39:44 00:43:46 22° 82° (E) 00:47:51 435.822/435.867
Oscar 19 03 Mar 00:41:01 00:45:46 37° 94° (E) 00:50:32 437.125/150
DANDE 03 Mar 00:54:51 01:00:11 79° 298° (WNW) 01:04:07 436.750
NANOSAT C BR1 03 Mar 00:55:56 00:59:56 39° 313° (NW) 01:03:53 145.865
BEESAT 3 03 Mar 01:00:58 01:03:01 13° 234° (SW) 01:04:59 437.485
MOZHAYETS 4 03 Mar 01:01:19 01:05:34 38° 45° (NE) 01:09:51
PCSat 03 Mar 01:07:40 01:13:06 70° 187° (S) 01:18:32 145.827
SWISSCUBE 03 Mar 01:10:22 01:14:23 25° 273° (W) 01:18:24 437.505
UNISAT 6 03 Mar 01:12:03 01:15:45 29° 322° (NW) 01:19:27 437.425
RS-15 03 Mar 01:12:23 01:23:00 60° 149° (SSE) 01:34:02 29.354- 29.394
BEESAT 03 Mar 01:19:08 01:23:03 24° 274° (W) 01:26:57 436.000
CUSAT 1 03 Mar 01:24:11 01:28:46 49° 305° (NW) 01:32:16 437.405
AIST 2 03 Mar 01:24:53 01:27:44 17° 229° (SW) 01:30:32 435.215
CUBESAT XI-V 03 Mar 01:24:54 01:28:37 24° 25° (NNE) 01:32:23 437.345
KKS-1 03 Mar 01:25:21 01:29:40 44° 260° (W) 01:33:58 437.445
BEESAT 2 03 Mar 01:27:23 01:28:34 11° 238° (WSW) 01:29:39 435.950
QB50P1 03 Mar 01:28:55 01:32:40 30° 321° (NW) 01:36:23 145.935-145.965
HORYU 2 03 Mar 01:29:06 01:31:35 15° 77° (ENE) 01:34:10 437.375
STARS 03 Mar 01:31:02 01:35:22 50° 257° (WSW) 01:39:43 437.465
QB50P2 03 Mar 01:32:52 01:36:35 29° 322° (NW) 01:40:14 145.880/145.840
STRAND 1 03 Mar 01:35:55 01:40:13 27° 22° (NNE) 01:44:32 437.568
TIGRISAT 03 Mar 01:37:05 01:40:35 24° 328° (NNW) 01:44:02 435.000
BUGSAT 1 03 Mar 01:38:06 01:41:50 30° 320° (NW) 01:45:30 437.445
SO-50 03 Mar 01:43:56 01:47:03 18° 128° (SE) 01:50:17 436.795
ITUPSAT 1 03 Mar 01:47:39 01:51:02 18° 281° (W) 01:54:22 437.325
DUCHIFAT 1 03 Mar 01:47:47 01:51:21 26° 325° (NW) 01:54:54 145.980
ANTELSAT 03 Mar 01:50:50 01:54:12 23° 331° (NNW) 01:57:32 437.575/2403.000
Gurwin Techsat 1B 03 Mar 01:52:43 01:57:45 41° 96° (E) 02:02:48 435.225
YUBILEINY 03 Mar 02:01:46 02:10:40 87° 250° (WSW) 02:19:33 435.215
PRISM 03 Mar 02:02:40 02:06:13 27° 35° (NE) 02:09:49 437.425
M-CUBED/EXP-1 PRIME 03 Mar 02:05:18 02:08:43 50° 245° (WSW) 02:12:22 437.505
AUBIESAT-1 03 Mar 02:07:00 02:10:26 52° 244° (WSW) 02:14:07 437.475
POLYITAN 1 03 Mar 02:08:21 02:11:44 23° 330° (NNW) 02:15:05 437.675
POPSAT HIP 1 03 Mar 02:08:44 02:12:07 23° 330° (NNW) 02:15:28 437.405
JAS-2 03 Mar 02:09:17 02:14:44 24° 74° (ENE) 02:20:41 435.910
GONETS M04 03 Mar 02:16:02 02:23:59 37° 349° (NNW) 02:31:57
AO-7 03 Mar 02:17:57 02:24:46 27° 80° (E) 02:31:41 29.400- 29.500
ITAMSAT 1 03 Mar 02:19:09 02:24:22 59° 106° (ESE) 02:29:34 435.822/435.867
Oscar 19 03 Mar 02:20:29 02:25:40 84° 296° (WNW) 02:30:49 437.125/150
NANOSAT C BR1 03 Mar 02:31:50 02:35:01 20° 335° (NNW) 02:38:09 145.865
MOZHAYETS 4 03 Mar 02:37:57 02:42:34 83° 246° (WSW) 02:47:14
DANDE 03 Mar 02:39:40 02:43:59 29° 319° (NW) 02:47:21 436.750
UNISAT 6 03 Mar 02:48:41 02:51:35 18° 345° (NNW) 02:54:27 437.425
PCSat 03 Mar 02:50:58 02:56:13 50° 211° (SSW) 03:01:27 145.827
CUBESAT XI-V 03 Mar 03:00:48 03:05:17 44° 48° (NE) 03:09:48 437.345
QB50P1 03 Mar 03:04:42 03:07:36 18° 344° (NNW) 03:10:29 145.935-145.965
KKS-1 03 Mar 03:04:50 03:07:29 15° 283° (WNW) 03:10:02 437.445
HORYU 2 03 Mar 03:05:10 03:09:27 43° 101° (E) 03:13:43 437.375
QB50P2 03 Mar 03:08:38 03:11:31 18° 345° (NNW) 03:14:22 145.880/145.840
CUSAT 1 03 Mar 03:09:08 03:12:20 20° 328° (NNW) 03:14:58 437.405
STARS 03 Mar 03:09:57 03:12:54 17° 280° (W) 03:15:45 437.465
BUGSAT 1 03 Mar 03:13:28 03:16:22 18° 343° (NNW) 03:19:14 437.445
TIGRISAT 03 Mar 03:13:31 03:16:16 17° 351° (N) 03:18:59 435.000
STRAND 1 03 Mar 03:13:42 03:18:38 47° 46° (NE) 03:23:37 437.568
SO-50 03 Mar 03:22:14 03:26:34 35° 151° (SSE) 03:31:01 436.795
DUCHIFAT 1 03 Mar 03:23:24 03:26:10 17° 348° (NNW) 03:28:56 145.980
RS-15 03 Mar 03:23:39 03:34:35 71° 180° (S) 03:45:59 29.354- 29.394
ANTELSAT 03 Mar 03:27:11 03:29:53 17° 355° (N) 03:32:34 437.575/2403.000
Gurwin Techsat 1B 03 Mar 03:32:51 03:38:13 79° 300° (WNW) 03:43:34 435.225
PRISM 03 Mar 03:37:04 03:41:14 64° 58° (ENE) 03:45:27 437.425
M-CUBED/EXP-1 PRIME 03 Mar 03:42:33 03:44:37 15° 269° (W) 03:46:42 437.505
POLYITAN 1 03 Mar 03:43:52 03:46:34 16° 353° (N) 03:49:14 437.675
AUBIESAT-1 03 Mar 03:44:04 03:46:14 15° 268° (W) 03:48:26 437.475
POPSAT HIP 1 03 Mar 03:44:13 03:46:55 16° 353° (N) 03:49:35 437.405
JAS-2 03 Mar 03:54:35 04:01:21 53° 99° (E) 04:08:50 435.910
YUBILEINY 03 Mar 03:58:42 04:06:52 43° 279° (W) 04:14:56 435.215
ITAMSAT 1 03 Mar 03:58:50 04:03:59 57° 309° (NW) 04:09:08 435.822/435.867
Oscar 19 03 Mar 03:59:58 04:04:42 38° 321° (NW) 04:09:24 437.125/150
NANOSAT C BR1 03 Mar 04:07:04 04:09:42 16° 359° (N) 04:12:19 145.865
Cubesat XI-IV 03 Mar 04:09:04 04:12:32 17° 75° (ENE) 04:16:07 437.490
AO-7 03 Mar 04:11:16 04:19:31 59° 107° (ESE) 04:27:42 29.400- 29.500
GONETS M04 03 Mar 04:15:19 04:23:22 39° 20° (NNE) 04:31:28
MOZHAYETS 4 03 Mar 04:16:29 04:20:28 28° 271° (W) 04:24:27
CUTE-I 03 Mar 04:17:52 04:21:35 19° 77° (ENE) 04:25:22 437.470
UNISAT 6 03 Mar 04:24:23 04:27:09 17° 9° (N) 04:29:55 437.425
DANDE 03 Mar 04:25:39 04:28:27 16° 344° (NNW) 04:30:50 436.750
PCSat 03 Mar 04:34:23 04:38:48 25° 234° (SW) 04:43:09 145.827
CUBESAT XI-V 03 Mar 04:37:52 04:42:37 73° 251° (WSW) 04:47:24 437.345
QB50P1 03 Mar 04:39:35 04:42:16 17° 7° (N) 04:44:58 145.935-145.965
HORYU 2 03 Mar 04:41:55 04:46:22 64° 302° (WNW) 04:50:47 437.375
QB50P2 03 Mar 04:43:29 04:46:12 17° 8° (N) 04:48:55 145.880/145.840
BUGSAT 1 03 Mar 04:47:59 04:50:39 16° 7° (N) 04:53:18 437.445
TIGRISAT 03 Mar 04:48:56 04:51:48 18° 15° (NNE) 04:54:41 435.000
STRAND 1 03 Mar 04:52:34 04:57:45 74° 249° (WSW) 05:02:59 437.568
CUSAT 1 03 Mar 04:54:40 04:56:29 13° 354° (N) 04:58:09 437.405
DUCHIFAT 1 03 Mar 04:58:02 05:00:48 17° 12° (NNE) 05:03:33 145.980
SO-50 03 Mar 05:01:54 05:06:33 49° 174° (S) 05:11:18 436.795
ANTELSAT 03 Mar 05:02:28 05:05:28 19° 19° (NNE) 05:08:29 437.575/2403.000
AIST 1 03 Mar 05:05:31 05:08:20 17° 77° (ENE) 05:11:15
HO-68 03 Mar 05:09:54 05:10:27 10° 51° (NE) 05:11:16 435.675
Gurwin Techsat 1B 03 Mar 05:12:55 05:17:48 37° 323° (NW) 05:22:40 435.225
PRISM 03 Mar 05:12:59 05:16:59 41° 260° (W) 05:21:01 437.425
POLYITAN 1 03 Mar 05:18:22 05:21:16 18° 17° (NNE) 05:24:12 437.675
POPSAT HIP 1 03 Mar 05:18:40 05:21:35 18° 17° (NNE) 05:24:31 437.405
RS-15 03 Mar 05:35:25 05:46:13 60° 210° (SSW) 05:57:28 29.354- 29.394
ITAMSAT 1 03 Mar 05:38:18 05:42:52 31° 332° (NNW) 05:47:23 435.822/435.867
Oscar 19 03 Mar 05:39:02 05:43:07 24° 345° (NNW) 05:47:11 437.125/150
JAS-2 03 Mar 05:39:59 05:46:50 77° 302° (WNW) 05:54:27 435.910
NANOSAT C BR1 03 Mar 05:41:18 05:44:22 20° 23° (NNE) 05:47:29 145.865
Cubesat XI-IV 03 Mar 05:48:52 05:54:04 45° 99° (E) 05:59:15 437.490
YUBILEINY 03 Mar 05:55:28 06:01:31 21° 306° (NW) 06:07:25 435.215
CUTE-I 03 Mar 05:57:45 06:03:00 49° 101° (E) 06:08:14 437.470
UNISAT 6 03 Mar 05:59:22 06:02:53 25° 33° (NNE) 06:06:24 437.425
AO-7 03 Mar 06:04:29 06:12:50 77° 313° (NW) 06:21:07 29.400- 29.500
DANDE 03 Mar 06:10:54 06:13:17 16° 11° (N) 06:15:23 436.750
GONETS M04 03 Mar 06:13:27 06:22:06 60° 50° (NE) 06:30:47
QB50P1 03 Mar 06:13:39 06:17:03 23° 31° (NNE) 06:20:28 145.935-145.965
CUBESAT XI-V 03 Mar 06:16:54 06:20:52 25° 275° (W) 06:24:46 437.345
QB50P2 03 Mar 06:17:36 06:21:01 24° 32° (NNE) 06:24:29 145.880/145.840
BRITE-PL 03 Mar 06:17:56 06:20:45 15° 71° (ENE) 06:23:32 437.365/2234.400
HORYU 2 03 Mar 06:18:42 06:22:32 28° 326° (NW) 06:26:20 437.375
GOMX 1 03 Mar 06:20:59 06:22:45 12° 68° (ENE) 06:24:37 467.674
BUGSAT 1 03 Mar 06:21:41 06:25:02 23° 30° (NNE) 06:28:24 437.445
TIGRISAT 03 Mar 06:23:52 06:27:35 29° 39° (NE) 06:31:18 435.000
CUTE 1.7 + AOD 2 03 Mar 06:27:47 06:29:05 11° 71° (ENE) 06:30:29 437.475
DUCHIFAT 1 03 Mar 06:32:03 06:35:36 26° 35° (NE) 06:39:10 145.980
STRAND 1 03 Mar 06:33:22 06:37:48 27° 273° (W) 06:42:12 437.568
ANTELSAT 03 Mar 06:37:32 06:41:23 32° 42° (NE) 06:45:14 437.575/2403.000
CUSAT 1 03 Mar 06:38:37 06:40:48 16° 22° (NNE) 06:42:45 437.405
AIST 1 03 Mar 06:40:56 06:45:13 52° 100° (E) 06:49:33
SO-50 03 Mar 06:42:02 06:46:39 43° 198° (SSW) 06:51:19 436.795
PRISM 03 Mar 06:51:29 06:53:39 13° 283° (WNW) 06:55:44 437.425
POLYITAN 1 03 Mar 06:52:31 06:56:16 30° 40° (NE) 07:00:02 437.675
Gurwin Techsat 1B 03 Mar 06:52:31 06:56:47 25° 347° (NNW) 07:01:03 435.225
POPSAT HIP 1 03 Mar 06:52:47 06:56:33 30° 40° (NE) 07:00:18 437.405
DOVE 4 03 Mar 06:53:19 06:55:38 14° 73° (ENE) 06:57:59 437.250
HO-68 03 Mar 06:55:33 07:01:17 25° 79° (E) 07:07:07 435.675
CINEMA 3 03 Mar 06:59:01 06:59:29 10° 68° (ENE) 07:00:05 145.822/145.860
AAUSAT CUBESAT 2 03 Mar 07:09:13 07:11:32 14° 77° (ENE) 07:13:54 437.432
COMPASS 1 03 Mar 07:12:03 07:14:39 16° 79° (ENE) 07:17:21 437.405
NANOSAT C BR1 03 Mar 07:15:29 07:19:25 36° 45° (NE) 07:23:22 145.865
ITAMSAT 1 03 Mar 07:17:09 07:21:15 24° 357° (N) 07:25:21 435.822/435.867
Oscar 19 03 Mar 07:17:17 07:21:15 23° 9° (N) 07:25:14 437.125/150
JAS-2 03 Mar 07:25:08 07:31:25 44° 326° (NW) 07:38:21 435.910
Cubesat XI-IV 03 Mar 07:29:08 07:34:33 73° 303° (WNW) 07:39:57 437.490
UNISAT 6 03 Mar 07:34:53 07:39:07 55° 56° (NE) 07:43:20 437.425
CUTE-I 03 Mar 07:38:00 07:43:23 68° 305° (NW) 07:48:44 437.470
SEEDS 03 Mar 07:39:54 07:43:22 24° 88° (E) 07:46:53 437.485
CANX-2 03 Mar 07:43:56 07:47:39 29° 91° (E) 07:51:24 2200.000
RS-15 03 Mar 07:47:02 07:56:50 37° 240° (WSW) 08:06:54 29.354- 29.394
QB50P1 03 Mar 07:48:09 07:52:18 50° 53° (NE) 07:56:28 145.935-145.965
FUNcube-1 03 Mar 07:51:32 07:53:01 12° 72° (ENE) 07:54:37 145.935
QB50P2 03 Mar 07:52:09 07:56:21 52° 54° (NE) 08:00:31 145.880/145.840
YUBILEINY 03 Mar 07:52:32 07:54:46 11° 336° (NNW) 07:56:52 435.215
ZACube-1 03 Mar 07:52:52 07:54:30 12° 73° (ENE) 07:56:14 437.345
DANDE 03 Mar 07:54:43 07:57:53 28° 40° (NE) 08:00:31 436.750
HORYU 2 03 Mar 07:55:05 07:58:11 19° 349° (N) 08:01:17 437.375
BUGSAT 1 03 Mar 07:55:44 07:59:52 48° 52° (NE) 08:03:59 437.445
BRITE-PL 03 Mar 07:55:58 08:00:42 43° 97° (E) 08:05:04 437.365/2234.400
AO-7 03 Mar 07:57:09 08:05:08 52° 340° (NNW) 08:13:04 29.400- 29.500
GOMX 1 03 Mar 07:58:07 08:02:26 35° 93° (E) 08:06:31 467.674
UKube-1 03 Mar 07:59:37 08:01:26 12° 74° (ENE) 08:03:23 .
TIGRISAT 03 Mar 07:59:38 08:03:57 72° 61° (ENE) 08:08:14 435.000
CUTE 1.7 + AOD 2 03 Mar 08:02:26 08:06:20 34° 94° (E) 08:10:16 437.475
DUCHIFAT 1 03 Mar 08:06:42 08:10:56 60° 57° (ENE) 08:15:10 145.980
GONETS M04 03 Mar 08:10:46 08:19:30 75° 257° (WSW) 08:28:13
UWE-3 03 Mar 08:12:42 08:15:27 17° 80° (E) 08:18:14 435.000/436.395/437.385
ANTELSAT 03 Mar 08:13:32 08:17:54 85° 63° (ENE) 08:22:13 437.575/2403.000
DELFI C3 03 Mar 08:13:34 08:16:31 19° 83° (E) 08:19:30 145.870
AIST 1 03 Mar 08:18:40 08:22:59 51° 303° (WNW) 08:27:21
CUSAT 1 03 Mar 08:21:33 08:24:38 40° 51° (NE) 08:27:15 437.405
O/OREOS (USA 219) 03 Mar 08:21:57 08:24:54 17° 106° (ESE) 08:27:56 437.305
SO-50 03 Mar 08:22:24 08:26:26 26° 221° (SW) 08:30:29 436.795
POLYITAN 1 03 Mar 08:27:32 08:31:50 77° 63° (ENE) 08:36:08 437.675
POPSAT HIP 1 03 Mar 08:27:45 08:32:04 77° 63° (ENE) 08:36:21 437.405
DOVE 4 03 Mar 08:30:26 08:34:44 42° 98° (E) 08:38:50 437.250
Gurwin Techsat 1B 03 Mar 08:31:19 08:35:33 25° 12° (NNE) 08:39:48 435.225
CINEMA 3 03 Mar 08:34:19 08:38:12 31° 93° (E) 08:41:59 145.822/145.860
Oscar 11 03 Mar 08:40:42 08:44:34 30° 92° (E) 08:48:26 145.826/435.025
HO-68 03 Mar 08:43:34 08:50:40 57° 105° (ESE) 08:57:46 435.675
AAUSAT CUBESAT 2 03 Mar 08:44:13 08:48:15 44° 100° (E) 08:52:18 437.432
COMPASS 1 03 Mar 08:47:16 08:51:23 49° 102° (ESE) 08:55:29 437.405
NANOSAT C BR1 03 Mar 08:50:46 08:55:05 83° 248° (WSW) 08:59:23 145.865
CUBEBUG 2 03 Mar 08:51:09 08:54:51 29° 91° (E) 08:58:31 437.445
Oscar 19 03 Mar 08:55:02 08:59:34 33° 33° (NNE) 09:04:08 437.125/150
ITAMSAT 1 03 Mar 08:55:14 08:59:35 27° 21° (NNE) 09:03:59 435.822/435.867
DX 1 03 Mar 09:06:01 09:09:49 27° 91° (E) 09:13:36 434.975-435.025
Cubesat XI-IV 03 Mar 09:09:18 09:14:12 36° 326° (NW) 09:19:05 437.490
JAS-2 03 Mar 09:09:40 09:15:21 32° 350° (N) 09:21:35 435.910
UNISAT 6 03 Mar 09:11:50 09:16:04 49° 258° (WSW) 09:20:16 437.425
AISAT 03 Mar 09:12:03 09:15:25 20° 84° (E) 09:18:48 437.250
CUBEBUG 1 03 Mar 09:13:49 09:16:14 14° 75° (ENE) 09:18:43 437.445
SEEDS 03 Mar 09:15:36 09:19:51 78° 110° (ESE) 09:24:06 437.485
50 SAT 03 Mar 09:17:38 09:20:32 19° 85° (E) 09:23:30 437.505
CUTE-I 03 Mar 09:18:07 09:22:57 34° 328° (NNW) 09:27:46 437.470
CANX-2 03 Mar 09:19:50 09:24:07 89° 295° (WNW) 09:28:24 2200.000
VELOX 1 03 Mar 09:21:14 09:24:45 22° 85° (E) 09:28:19 145.980
QB50P1 03 Mar 09:24:01 09:28:15 55° 255° (WSW) 09:32:28 145.935-145.965
HUMSAT D 03 Mar 09:26:42 09:30:14 27° 90° (E) 09:33:47 437.325/437.525
FUNcube-1 03 Mar 09:26:45 09:30:39 36° 96° (E) 09:34:32 145.935
QB50P2 03 Mar 09:28:08 09:32:20 52° 256° (WSW) 09:36:34 145.880/145.840
ZACube-1 03 Mar 09:28:14 09:32:09 37° 97° (E) 09:36:03 437.345
HORYU 2 03 Mar 09:30:31 09:33:39 19° 13° (NNE) 09:36:47 437.375
BUGSAT 1 03 Mar 09:31:07 09:35:22 58° 254° (WSW) 09:39:37 437.445
BRITE-PL 03 Mar 09:34:36 09:39:34 67° 300° (WNW) 09:44:07 437.365/2234.400
UKube-1 03 Mar 09:34:49 09:38:54 37° 98° (E) 09:42:59 .
GOMX 1 03 Mar 09:36:18 09:41:04 77° 297° (WNW) 09:45:28 467.674
TIGRISAT 03 Mar 09:37:02 09:41:04 36° 263° (W) 09:45:04 435.000
DANDE 03 Mar 09:38:11 09:41:36 69° 250° (WSW) 09:44:24 436.750
CUTE 1.7 + AOD 2 03 Mar 09:38:24 09:42:40 75° 296° (WNW) 09:46:55 437.475
ESTCUBE 1 03 Mar 09:39:01 09:42:26 21° 83° (E) 09:45:54 437.505/2401.250
DUCHIFAT 1 03 Mar 09:42:51 09:46:59 44° 260° (W) 09:51:06 145.980
SPROUT 03 Mar 09:44:46 09:45:25 10° 69° (ENE) 09:46:12 437.525
DELFI C3 03 Mar 09:48:27 09:52:32 61° 107° (ESE) 09:56:36 145.870
UWE-3 03 Mar 09:48:50 09:52:59 53° 104° (ESE) 09:57:04 435.000/436.395/437.385
AO-7 03 Mar 09:49:06 09:56:56 48° 7° (N) 10:04:46 29.400- 29.500
ANTELSAT 03 Mar 09:51:19 09:55:11 31° 267° (W) 09:59:01 437.575/2403.000
AIST 1 03 Mar 09:58:01 10:01:37 23° 328° (NNW) 10:05:12
O/OREOS (USA 219) 03 Mar 09:59:03 10:03:27 45° 129° (SE) 10:07:52 437.305
RS-15 03 Mar 09:59:23 10:05:49 17° 268° (W) 10:11:57 29.354- 29.394
POLYITAN 1 03 Mar 10:04:14 10:08:11 34° 265° (W) 10:12:06 437.675
SO-50 03 Mar 10:04:17 10:05:39 11° 243° (WSW) 10:06:54 436.795
POPSAT HIP 1 03 Mar 10:04:24 10:08:21 34° 265° (W) 10:12:17 437.405
CUSAT 1 03 Mar 10:04:36 10:07:27 34° 259° (W) 10:09:57 437.405
GONETS M04 03 Mar 10:07:41 10:15:21 36° 285° (WNW) 10:22:58
DOVE 4 03 Mar 10:08:18 10:12:49 64° 301° (WNW) 10:17:04 437.250
Gurwin Techsat 1B 03 Mar 10:09:41 10:14:31 36° 36° (NE) 10:19:23 435.225
CINEMA 3 03 Mar 10:11:33 10:15:54 80° 296° (WNW) 10:20:06 145.822/145.860
Oscar 11 03 Mar 10:16:52 10:21:14 86° 299° (WNW) 10:25:35 145.826/435.025
AAUSAT CUBESAT 2 03 Mar 10:19:57 10:24:05 58° 302° (WNW) 10:28:13 437.432
COMPASS 1 03 Mar 10:23:05 10:27:12 53° 304° (NW) 10:31:19 437.405
CUBEBUG 2 03 Mar 10:27:50 10:32:05 86° 297° (WNW) 10:36:16 437.445
NANOSAT C BR1 03 Mar 10:27:54 10:31:33 26° 270° (W) 10:35:11 145.865
HO-68 03 Mar 10:31:36 10:38:47 73° 310° (NW) 10:45:58 435.675
ITAMSAT 1 03 Mar 10:33:18 10:38:18 47° 45° (NE) 10:43:19 435.822/435.867
Oscar 19 03 Mar 10:33:19 10:38:26 68° 57° (ENE) 10:43:34 437.125/150
DX 1 03 Mar 10:42:13 10:46:40 84° 114° (ESE) 10:51:05 434.975-435.025
AISAT 03 Mar 10:48:26 10:52:56 61° 107° (ESE) 10:57:21 437.250
Cubesat XI-IV 03 Mar 10:48:57 10:53:17 25° 350° (N) 10:57:37 437.490
CUBEBUG 1 03 Mar 10:49:32 10:53:49 42° 99° (E) 10:58:03 437.445
UNISAT 6 03 Mar 10:51:11 10:53:55 16° 281° (W) 10:56:34 437.425
SEEDS 03 Mar 10:51:35 10:55:30 37° 313° (NW) 10:59:25 437.485
50 SAT 03 Mar 10:52:20 10:56:18 65° 108° (ESE) 11:00:15 437.505
JAS-2 03 Mar 10:53:30 10:59:05 34° 16° (NNE) 11:05:18 435.910
CANX-2 03 Mar 10:55:58 10:59:47 33° 316° (NW) 11:03:36 2200.000
VELOX 1 03 Mar 10:57:39 11:02:09 68° 108° (ESE) 11:06:37 145.980
CUTE-I 03 Mar 10:57:40 11:01:59 25° 352° (N) 11:06:17 437.470
QB50P1 03 Mar 11:02:03 11:05:04 18° 279° (W) 11:08:00 145.935-145.965
HUMSAT D 03 Mar 11:02:25 11:06:35 88° 111° (ESE) 11:10:43 437.325/437.525
FUNcube-1 03 Mar 11:03:09 11:07:20 69° 300° (WNW) 11:11:29 145.935
ZACube-1 03 Mar 11:04:40 11:08:51 68° 300° (WNW) 11:12:59 437.345
HORYU 2 03 Mar 11:05:29 11:09:19 29° 36° (NE) 11:13:12 437.375
QB50P2 03 Mar 11:06:21 11:09:14 17° 280° (W) 11:12:03 145.880/145.840
BUGSAT 1 03 Mar 11:08:37 11:11:44 19° 277° (W) 11:14:47 437.445
UKube-1 03 Mar 11:11:01 11:15:24 73° 300° (WNW) 11:19:45 .
BRITE-PL 03 Mar 11:13:10 11:17:33 30° 325° (NW) 11:21:36 437.365/2234.400
CUTE 1.7 + AOD 2 03 Mar 11:14:29 11:18:12 29° 319° (NW) 11:21:54 437.475
GOMX 1 03 Mar 11:14:34 11:18:47 32° 321° (NW) 11:22:44 467.674
ESTCUBE 1 03 Mar 11:15:41 11:20:14 61° 106° (ESE) 11:24:47 437.505/2401.250
SWISSCUBE 03 Mar 11:17:18 11:19:48 14° 73° (ENE) 11:22:25 437.505
TIGRISAT 03 Mar 11:17:22 11:19:08 12° 287° (WNW) 11:20:47 435.000
SPROUT 03 Mar 11:19:04 11:22:58 31° 93° (E) 11:26:50 437.525
TISAT 1 03 Mar 11:20:34 11:24:20 29° 92° (E) 11:28:05 437.305
DUCHIFAT 1 03 Mar 11:21:28 11:23:56 15° 283° (WNW) 11:26:19 145.980
DANDE 03 Mar 11:22:25 11:24:08 14° 277° (W) 11:25:40 436.750
DELFI C3 03 Mar 11:23:48 11:27:42 43° 308° (NW) 11:31:36 145.870
UWE-3 03 Mar 11:25:31 11:29:36 49° 306° (NW) 11:33:38 435.000/436.395/437.385
BEESAT 03 Mar 11:25:43 11:28:24 15° 74° (ENE) 11:31:11 436.000
YUBILEINY 03 Mar 11:35:50 11:39:49 14° 38° (NE) 11:44:01 435.215
AIST 1 03 Mar 11:38:01 11:40:50 16° 353° (N) 11:43:38
O/OREOS (USA 219) 03 Mar 11:38:04 11:42:42 86° 328° (NNW) 11:47:22 437.305
AO-7 03 Mar 11:40:45 11:48:56 62° 34° (NE) 11:57:06 29.400- 29.500
POLYITAN 1 03 Mar 11:44:03 11:45:27 11° 288° (WNW) 11:46:43 437.675
POPSAT HIP 1 03 Mar 11:44:08 11:45:35 11° 288° (WNW) 11:46:54 437.405
DOVE 4 03 Mar 11:46:11 11:50:04 27° 325° (NW) 11:53:45 437.250
Gurwin Techsat 1B 03 Mar 11:48:45 11:54:05 76° 60° (ENE) 11:59:27 435.225
CINEMA 3 03 Mar 11:48:56 11:52:47 31° 319° (NW) 11:56:29 145.822/145.860
Oscar 11 03 Mar 11:53:14 11:57:07 33° 317° (NW) 12:01:01 145.826/435.025
ITUPSAT 1 03 Mar 11:53:15 11:56:46 20° 81° (E) 12:00:20 437.325
AAUSAT CUBESAT 2 03 Mar 11:55:46 11:59:13 25° 324° (NW) 12:02:37 437.432
COMPASS 1 03 Mar 11:58:57 12:02:19 24° 327° (NNW) 12:05:40 437.405
GONETS M04 03 Mar 12:04:29 12:09:41 17° 313° (NW) 12:14:44
CUBEBUG 2 03 Mar 12:04:43 12:08:30 32° 317° (NW) 12:12:13 437.445
ITAMSAT 1 03 Mar 12:12:25 12:17:41 77° 248° (WSW) 12:22:59 435.822/435.867
Oscar 19 03 Mar 12:13:07 12:18:06 47° 260° (W) 12:23:05 437.125/150
DX 1 03 Mar 12:18:37 12:22:42 37° 317° (NW) 12:26:45 434.975-435.025
HO-68 03 Mar 12:19:14 12:25:58 45° 335° (NNW) 12:32:42 435.675
AISAT 03 Mar 12:25:12 12:29:33 48° 309° (NW) 12:33:50 437.250
CUBEBUG 1 03 Mar 12:26:01 12:30:27 65° 302° (WNW) 12:34:52 437.445
SEEDS 03 Mar 12:27:28 12:30:31 19° 335° (NNW) 12:33:33 437.485
50 SAT 03 Mar 12:27:29 12:31:14 40° 309° (NW) 12:34:56 437.505
Cubesat XI-IV 03 Mar 12:27:47 12:32:11 26° 15° (NNE) 12:36:36 437.490
CANX-2 03 Mar 12:31:53 12:34:50 18° 339° (NNW) 12:37:45 2200.000
VELOX 1 03 Mar 12:34:22 12:38:40 45° 311° (NW) 12:42:56 145.980
CUTE-I 03 Mar 12:36:26 12:40:52 27° 17° (NNE) 12:45:18 437.470
JAS-2 03 Mar 12:37:15 12:43:10 51° 42° (NE) 12:49:52 435.910
HUMSAT D 03 Mar 12:38:23 12:42:07 33° 316° (NW) 12:45:49 437.325/437.525
FUNcube-1 03 Mar 12:39:42 12:43:16 27° 322° (NW) 12:46:48 145.935
HORYU 2 03 Mar 12:41:08 12:45:33 69° 59° (ENE) 12:49:59 437.375
ZACube-1 03 Mar 12:41:13 12:44:47 27° 322° (NW) 12:48:18 437.345
UKube-1 03 Mar 12:47:19 12:51:09 30° 323° (NW) 12:54:58 .
CUTE 1.7 + AOD 2 03 Mar 12:50:21 12:53:10 17° 343° (NNW) 12:55:58 437.475
BRITE-PL 03 Mar 12:51:14 12:54:57 21° 349° (N) 12:58:28 437.365/2234.400
GOMX 1 03 Mar 12:52:25 12:55:53 20° 345° (NNW) 12:59:11 467.674
ESTCUBE 1 03 Mar 12:52:42 12:57:08 49° 309° (NW) 13:01:33 437.505/2401.250
SWISSCUBE 03 Mar 12:54:30 12:59:03 39° 97° (E) 13:03:37 437.505
SPROUT 03 Mar 12:55:10 12:59:32 84° 296° (WNW) 13:03:51 437.525
TISAT 1 03 Mar 12:56:21 13:00:39 87° 295° (WNW) 13:04:55 437.305
DELFI C3 03 Mar 12:59:09 13:02:12 21° 331° (NNW) 13:05:15 145.870
KKS-1 03 Mar 13:01:57 13:05:05 19° 82° (E) 13:08:15 437.445
UWE-3 03 Mar 13:02:12 13:05:31 23° 329° (NNW) 13:08:46 435.000/436.395/437.385
BEESAT 03 Mar 13:03:00 13:07:35 41° 98° (E) 13:12:10 436.000
STARS 03 Mar 13:06:43 13:09:23 16° 78° (ENE) 13:12:08 437.465
AIST 1 03 Mar 13:17:06 13:20:11 18° 19° (NNE) 13:23:17
O/OREOS (USA 219) 03 Mar 13:17:50 13:22:27 63° 356° (N) 13:27:04 437.305
DOVE 4 03 Mar 13:23:37 13:26:46 18° 349° (N) 13:29:47 437.250
CINEMA 3 03 Mar 13:26:02 13:29:01 18° 343° (NNW) 13:31:56 145.822/145.860
YUBILEINY 03 Mar 13:26:41 13:33:39 28° 66° (ENE) 13:40:48 435.215
Oscar 11 03 Mar 13:29:22 13:32:25 19° 340° (NNW) 13:35:26 145.826/435.025
Gurwin Techsat 1B 03 Mar 13:29:24 13:34:29 43° 263° (W) 13:39:35 435.225
ITUPSAT 1 03 Mar 13:30:55 13:35:43 56° 105° (ESE) 13:40:29 437.325
AAUSAT CUBESAT 2 03 Mar 13:31:14 13:33:48 16° 348° (NNW) 13:36:21 437.432
AO-7 03 Mar 13:33:19 13:41:42 80° 240° (WSW) 13:50:06 29.400- 29.500
COMPASS 1 03 Mar 13:34:24 13:36:56 16° 350° (N) 13:39:28 437.405
CUBEBUG 2 03 Mar 13:41:24 13:44:18 18° 341° (NNW) 13:47:10 437.445
ITAMSAT 1 03 Mar 13:53:25 13:58:00 29° 271° (W) 14:02:32 435.822/435.867
DX 1 03 Mar 13:54:48 13:58:07 21° 339° (NNW) 14:01:25 434.975-435.025
Oscar 19 03 Mar 13:55:20 13:58:46 17° 284° (WNW) 14:02:07 437.125/150
AISAT 03 Mar 14:01:50 14:05:28 24° 332° (NNW) 14:09:03 437.250
CUBEBUG 1 03 Mar 14:02:30 14:06:20 28° 324° (NW) 14:10:08 437.445
50 SAT 03 Mar 14:02:39 14:05:30 19° 332° (NNW) 14:08:20 437.505
SEEDS 03 Mar 14:02:41 14:05:08 15° 359° (N) 14:07:36 437.485
HO-68 03 Mar 14:06:10 14:12:38 38° 1° (N) 14:19:07 435.675
Cubesat XI-IV 03 Mar 14:06:21 14:11:21 40° 39° (NE) 14:16:23 437.490
CANX-2 03 Mar 14:07:03 14:09:32 15° 3° (N) 14:12:03 2200.000
VELOX 1 03 Mar 14:10:58 14:14:31 23° 334° (NNW) 14:18:02 145.980
HUMSAT D 03 Mar 14:14:12 14:17:02 18° 338° (NNW) 14:19:50 437.325/437.525
CUTE-I 03 Mar 14:15:00 14:20:03 42° 41° (NE) 14:25:07 437.470
FUNcube-1 03 Mar 14:15:55 14:18:37 17° 345° (NNW) 14:21:17 145.935
ZACube-1 03 Mar 14:17:28 14:20:10 17° 345° (NNW) 14:22:49 437.345
HORYU 2 03 Mar 14:18:18 14:22:31 40° 261° (W) 14:26:44 437.375
MOZHAYETS 4 03 Mar 14:19:29 14:21:20 12° 70° (ENE) 14:23:19
JAS-2 03 Mar 14:22:01 14:28:04 81° 248° (WSW) 14:35:01 435.910
UKube-1 03 Mar 14:23:16 14:26:21 19° 346° (NNW) 14:29:26 .
CUTE 1.7 + AOD 2 03 Mar 14:25:20 14:27:51 16° 6° (N) 14:30:24 437.475
BRITE-PL 03 Mar 14:28:20 14:32:10 21° 14° (NNE) 14:35:49 437.365/2234.400
GOMX 1 03 Mar 14:29:21 14:32:45 19° 10° (N) 14:36:01 467.674
ESTCUBE 1 03 Mar 14:29:37 14:33:20 25° 331° (NNW) 14:37:02 437.505/2401.250
SPROUT 03 Mar 14:31:25 14:35:18 32° 318° (NW) 14:39:09 437.525
TISAT 1 03 Mar 14:32:19 14:36:10 33° 318° (NW) 14:40:00 437.305
SWISSCUBE 03 Mar 14:32:28 14:37:19 75° 300° (WNW) 14:42:09 437.505
DELFI C3 03 Mar 14:33:59 14:36:16 15° 354° (N) 14:38:33 145.870
KKS-1 03 Mar 14:38:17 14:42:42 55° 104° (ESE) 14:47:06 437.445
UWE-3 03 Mar 14:38:23 14:40:57 16° 353° (N) 14:43:29 435.000/436.395/437.385
BEESAT 03 Mar 14:40:58 14:45:47 72° 301° (WNW) 14:50:36 436.000
STARS 03 Mar 14:42:41 14:46:58 47° 102° (ESE) 14:51:14 437.465
AIST 1 03 Mar 14:55:09 14:59:10 32° 44° (NE) 15:03:11
O/OREOS (USA 219) 03 Mar 14:57:36 15:02:15 76° 21° (NNE) 15:06:54 437.305
DOVE 4 03 Mar 15:00:03 15:03:16 19° 13° (NNE) 15:06:23 437.250
CINEMA 3 03 Mar 15:02:14 15:05:00 17° 7° (N) 15:07:42 145.822/145.860
Oscar 11 03 Mar 15:04:41 15:07:22 16° 4° (N) 15:10:03 145.826/435.025
AAUSAT CUBESAT 2 03 Mar 15:05:40 15:08:11 16° 11° (NNE) 15:10:44 437.432
M-CUBED/EXP-1 PRIME 03 Mar 15:08:15 15:10:23 14° 90° (E) 15:12:40 437.505
COMPASS 1 03 Mar 15:08:47 15:11:23 16° 14° (NNE) 15:14:00 437.405
ITUPSAT 1 03 Mar 15:08:58 15:13:43 56° 308° (NW) 15:18:27 437.325
AUBIESAT-1 03 Mar 15:09:31 15:11:32 13° 89° (E) 15:13:43 437.475
Gurwin Techsat 1B 03 Mar 15:12:36 15:15:56 16° 287° (WNW) 15:19:11 435.225
CUBEBUG 2 03 Mar 15:17:14 15:19:48 16° 4° (N) 15:22:19 437.445
YUBILEINY 03 Mar 15:20:27 15:28:59 60° 93° (E) 15:37:37 435.215
AO-7 03 Mar 15:27:56 15:35:43 40° 267° (W) 15:43:27 29.400- 29.500
DX 1 03 Mar 15:30:15 15:33:13 18° 3° (N) 15:36:11 434.975-435.025
SEEDS 03 Mar 15:36:49 15:39:45 19° 22° (NNE) 15:42:42 437.485
50 SAT 03 Mar 15:37:16 15:39:22 14° 355° (N) 15:41:27 437.505
AISAT 03 Mar 15:37:54 15:40:58 18° 356° (N) 15:44:00 437.250
ITAMSAT 1 03 Mar 15:38:18 15:39:24 10° 296° (WNW) 15:40:20 435.822/435.867
CUBEBUG 1 03 Mar 15:38:36 15:41:41 19° 347° (NNW) 15:44:44 437.445
CANX-2 03 Mar 15:41:12 15:44:17 20° 26° (NNE) 15:47:26 2200.000
Cubesat XI-IV 03 Mar 15:45:43 15:51:09 86° 65° (ENE) 15:56:37 437.490
VELOX 1 03 Mar 15:46:55 15:49:57 18° 358° (N) 15:52:59 145.980
HUMSAT D 03 Mar 15:49:15 15:51:37 15° 2° (N) 15:53:58 437.325/437.525
FUNcube-1 03 Mar 15:51:11 15:53:43 16° 9° (N) 15:56:16 145.935
HO-68 03 Mar 15:52:34 15:59:19 47° 27° (NNE) 16:06:06 435.675
ZACube-1 03 Mar 15:52:44 15:55:18 16° 9° (N) 15:57:52 437.345
CUTE-I 03 Mar 15:54:28 15:59:53 89° 236° (WSW) 16:05:20 437.470
MOZHAYETS 4 03 Mar 15:55:44 16:00:01 35° 94° (E) 16:04:18
HORYU 2 03 Mar 15:58:08 16:00:26 14° 285° (WNW) 16:02:39 437.375
UKube-1 03 Mar 15:58:20 16:01:19 18° 10° (N) 16:04:20 .
CUTE 1.7 + AOD 2 03 Mar 15:59:24 16:02:38 22° 30° (NNE) 16:05:54 437.475
BRITE-PL 03 Mar 16:04:58 16:09:38 32° 37° (NE) 16:14:03 437.365/2234.400
GOMX 1 03 Mar 16:05:34 16:09:46 27° 33° (NNE) 16:13:46 467.674
ESTCUBE 1 03 Mar 16:05:58 16:09:05 18° 355° (N) 16:12:12 437.505/2401.250
SPROUT 03 Mar 16:07:26 16:10:29 19° 341° (NNW) 16:13:30 437.525
DELFI C3 03 Mar 16:07:40 16:10:15 16° 17° (NNE) 16:12:50 145.870
TISAT 1 03 Mar 16:08:05 16:11:06 19° 340° (NNW) 16:14:06 437.305
JAS-2 03 Mar 16:08:42 16:14:12 34° 275° (W) 16:20:19 435.910
SWISSCUBE 03 Mar 16:10:27 16:14:47 33° 323° (NW) 16:19:06 437.505
UWE-3 03 Mar 16:13:28 16:16:15 17° 17° (NNE) 16:19:02 435.000/436.395/437.385
KKS-1 03 Mar 16:15:04 16:19:26 52° 307° (NW) 16:23:46 437.445
BEESAT 03 Mar 16:18:55 16:23:12 32° 324° (NW) 16:27:28 436.000
STARS 03 Mar 16:19:16 16:23:38 59° 304° (NW) 16:27:57 437.465
CUBESAT XI-V 03 Mar 16:20:31 16:23:13 15° 74° (ENE) 16:26:01 437.345
AIST 1 03 Mar 16:32:56 16:37:24 85° 65° (ENE) 16:41:52
DOVE 4 03 Mar 16:35:54 16:40:01 29° 36° (NE) 16:43:56 437.250
O/OREOS (USA 219) 03 Mar 16:37:07 16:41:41 57° 225° (SW) 16:46:12 437.305
CINEMA 3 03 Mar 16:37:33 16:41:05 23° 31° (NNE) 16:44:32 145.822/145.860
Oscar 11 03 Mar 16:39:06 16:42:23 22° 27° (NNE) 16:45:43 145.826/435.025
AAUSAT CUBESAT 2 03 Mar 16:39:24 16:42:46 24° 35° (NE) 16:46:10 437.432
PRISM 03 Mar 16:41:27 16:44:02 16° 80° (E) 16:46:42 437.425
M-CUBED/EXP-1 PRIME 03 Mar 16:42:29 16:46:15 42° 112° (ESE) 16:50:21 437.505
COMPASS 1 03 Mar 16:42:36 16:46:04 26° 37° (NE) 16:49:34 437.405
AUBIESAT-1 03 Mar 16:43:37 16:47:23 41° 111° (ESE) 16:51:28 437.475
BEESAT 3 03 Mar 16:45:28 16:46:49 11° 123° (ESE) 16:48:16 437.485
ITUPSAT 1 03 Mar 16:46:54 16:51:00 28° 330° (NNW) 16:55:05 437.325
STRAND 1 03 Mar 16:48:39 16:51:54 17° 75° (ENE) 16:55:14 437.568
CUBEBUG 2 03 Mar 16:52:05 16:55:21 21° 28° (NNE) 16:58:34 437.445
DX 1 03 Mar 17:04:52 17:08:21 23° 26° (NNE) 17:11:52 434.975-435.025
50 SAT 03 Mar 17:10:41 17:13:09 16° 19° (NNE) 17:15:39 437.505
SEEDS 03 Mar 17:10:53 17:14:42 34° 45° (NE) 17:18:33 437.485
BEESAT 2 03 Mar 17:11:01 17:13:14 14° 128° (SE) 17:15:31 435.950
AISAT 03 Mar 17:13:02 17:16:23 21° 20° (NNE) 17:19:45 437.250
CUBEBUG 1 03 Mar 17:13:47 17:16:50 18° 11° (N) 17:19:52 437.445
CANX-2 03 Mar 17:15:31 17:19:28 39° 49° (NE) 17:23:27 2200.000
AIST 2 03 Mar 17:16:20 17:16:32 10° 119° (ESE) 17:16:51 435.215
YUBILEINY 03 Mar 17:17:02 17:25:52 72° 301° (WNW) 17:34:45 435.215
VELOX 1 03 Mar 17:21:57 17:25:22 22° 21° (NNE) 17:28:46 145.980
HUMSAT D 03 Mar 17:23:15 17:26:13 19° 26° (NNE) 17:29:12 437.325/437.525
FUNcube-1 03 Mar 17:25:38 17:28:59 23° 32° (NNE) 17:32:19 145.935
AO-7 03 Mar 17:25:51 17:31:19 18° 295° (WNW) 17:36:32 29.400- 29.500
Cubesat XI-IV 03 Mar 17:26:48 17:31:50 37° 266° (W) 17:36:51 437.490
ZACube-1 03 Mar 17:27:12 17:30:35 24° 33° (NNE) 17:33:57 437.345
UKube-1 03 Mar 17:32:48 17:36:28 27° 33° (NNE) 17:40:09 .
MOZHAYETS 4 03 Mar 17:33:01 17:37:41 80° 298° (WNW) 17:42:21
CUTE 1.7 + AOD 2 03 Mar 17:33:50 17:37:53 46° 52° (NE) 17:41:57 437.475
CUTE-I 03 Mar 17:35:41 17:40:37 35° 267° (W) 17:45:32 437.470
HO-68 03 Mar 17:39:24 17:46:34 78° 53° (NE) 17:53:48 435.675
DELFI C3 03 Mar 17:41:00 17:44:29 28° 40° (NE) 17:48:00 145.870
ESTCUBE 1 03 Mar 17:41:22 17:44:44 21° 19° (NNE) 17:48:09 437.505/2401.250
BRITE-PL 03 Mar 17:42:17 17:47:41 68° 59° (ENE) 17:52:43 437.365/2234.400
GOMX 1 03 Mar 17:42:18 17:47:19 57° 56° (NE) 17:52:02 467.674
SPROUT 03 Mar 17:42:38 17:45:21 17° 5° (N) 17:48:04 437.525
TISAT 1 03 Mar 17:43:02 17:45:42 16° 4° (N) 17:48:23 437.305
GONETS M04 03 Mar 17:43:19 17:47:58 16° 44° (NE) 17:52:50
SWISSCUBE 03 Mar 17:48:01 17:51:40 22° 347° (NNW) 17:55:19 437.505
UWE-3 03 Mar 17:48:09 17:51:51 29° 40° (NE) 17:55:31 435.000/436.395/437.385
KKS-1 03 Mar 17:51:46 17:55:27 25° 330° (NNW) 17:59:05 437.445
STARS 03 Mar 17:55:50 17:59:33 27° 327° (NNW) 18:03:15 437.465
BEESAT 03 Mar 17:56:26 18:00:03 22° 348° (NNW) 18:03:40 436.000
